Tracking 28799 objects as of 18-Apr-2024
HD Live streaming from Space Station
objects crossing your sky now

ATLAS 5 CENTAUR R/B

Track ATLAS 5 CENTAUR R/B now!
10-day predictions


NORAD ID: 27500
Int'l Code: 2002-038B
Perigee: 216.2 km
Apogee: 22,807.1 km
Inclination: 18.1 °
Period: 396.6 minutes
Semi major axis: 17882 km
RCS: 14.0382 m2 (large)
Launch date: August 21, 2002
Source: United States (US)
Launch site: AIR FORCE EASTERN TEST RANGE (AFETR)

Note: This is a ROCKET BODY
Your satellite tracking list
Your tracking list is empty




NASA's NSSDC Master Catalog

Two Line Element Set (TLE):
1 27500U 02038B   24108.93175196  .00055193  00000-0  28300-2 0  9991
2 27500  18.1066 345.9988 6316427 229.0198  56.1255  3.63041100206059
Source of the keplerian elements: AFSPC